Location: Lynch Observatory
(39.9540°N, 75.1861°W)
Time: 07:56:27
(UTC-04:00)

ISS - Visible Passes

Search period start: 19 July 2018 00:00
Search period end: 29 July 2018 00:00
Orbit: 402 x 408 km, 51.6° (Epoch: 19 July)

Date Brightness Start Highest point End Pass type
(mag) Time Alt. Az. Time Alt. Az. Time Alt. Az.
19 Jul -1.0 00:07:08 14° NW 00:08:42 19° NNW 00:11:08 10° NNE visible
19 Jul -0.3 01:45:16 10° NNW 01:46:13 11° N 01:47:11 10° NNE visible
19 Jul -0.8 03:21:24 10° NNW 03:23:45 18° NNE 03:26:07 10° ENE visible
19 Jul -3.8 04:57:20 10° NW 05:00:38 90° SW 05:03:55 10° SE visible
19 Jul -3.4 21:36:47 10° SSW 21:39:51 39° SE 21:42:56 10° ENE visible
19 Jul -1.6 23:13:34 10° W 23:16:25 26° NNW 23:19:16 10° NNE visible
20 Jul -0.2 00:52:34 10° NNW 00:53:46 12° N 00:55:00 10° NNE visible
20 Jul -0.5 02:29:33 10° NNW 02:31:23 14° NNE 02:33:14 10° NE visible
20 Jul -2.8 04:05:17 10° NW 04:08:30 48° NNE 04:11:42 10° ESE visible
20 Jul -2.5 22:21:02 10° WSW 22:24:10 42° NNW 22:27:20 10° NE visible
20 Jul -0.4 23:59:37 10° NW 00:01:20 13° NNW 00:03:02 10° NNE visible
21 Jul -0.3 01:37:38 10° NNW 01:38:57 12° N 01:40:16 10° NNE visible
21 Jul -1.7 03:13:20 10° NW 03:16:17 29° NNE 03:19:12 10° E visible
21 Jul -3.2 04:49:45 10° WNW 04:52:47 34° SW 04:55:48 10° SSE visible
21 Jul -3.7 21:28:44 10° SW 21:32:00 79° NW 21:35:17 10° NE visible
21 Jul -0.7 23:06:41 10° WNW 23:08:55 17° NNW 23:11:10 10° NNE visible
22 Jul -0.2 00:45:31 10° NNW 00:46:29 11° N 00:47:27 10° NNE visible
22 Jul -1.1 02:21:26 10° NNW 02:23:58 20° NNE 02:26:30 10° ENE visible
22 Jul -4.0 03:57:27 10° WNW 04:00:44 70° SW 04:04:00 10° SE visible
22 Jul -1.2 22:13:52 10° W 22:16:34 23° NNW 22:19:16 10° NNE visible
22 Jul -0.3 23:52:55 10° NNW 23:53:59 11° N 23:55:03 10° NNE visible
23 Jul -0.6 01:29:33 10° NNW 01:30:50 14° N 01:30:50 14° N visible
23 Jul -2.0 21:21:13 10° W 21:24:16 35° NNW 21:27:19 10° NE visible
23 Jul -0.5 23:00:00 10° NW 23:01:30 12° N 23:03:00 10° NNE visible
24 Jul -0.5 00:37:38 10° NNW 00:39:07 12° N 00:39:26 12° NNE visible
24 Jul -0.7 22:06:59 10° NW 22:09:02 15° NNW 22:11:04 10° NNE visible
24 Jul -0.5 23:45:34 10° NNW 23:46:36 11° N 23:47:40 10° NNE visible
25 Jul -1.0 21:14:05 10° WNW 21:16:37 20° NNW 21:19:09 10° NNE visible
25 Jul -0.5 22:53:07 10° NNW 22:54:05 11° N 22:55:02 10° NNE visible
26 Jul -0.5 00:29:25 10° NNW 00:30:20 14° N 00:30:20 14° N visible
26 Jul -0.6 22:00:13 10° NNW 22:01:33 12° N 22:02:52 10° NNE visible
26 Jul -0.8 23:37:29 10° NNW 23:39:10 13° NNE 23:39:39 13° NNE visible
27 Jul -0.8 21:07:12 10° NW 21:09:02 14° NNW 21:10:52 10° NNE visible
27 Jul -0.7 22:45:28 10° NNW 22:46:38 11° N 22:47:48 10° NNE visible
28 Jul -0.5 00:21:09 10° NNW 00:21:37 13° NNW 00:21:37 13° NNW visible
28 Jul -0.7 21:53:09 10° NNW 21:54:04 11° N 21:54:59 10° NNE visible
28 Jul -1.1 23:29:11 10° NNW 23:31:01 18° N 23:31:01 18° N visible
